H1 CPF 2 NER 2021 9 4 9 247 01 glonass116 H2 0907001 9116 36111 2021 9 4 0 0 0 2021 9 7 23 45 0 900 1 1 0 0 0 1 H9 10 0 59461 0.00000 0 18475272.060 -15962752.430 7404452.439 10 0 59461 900.00000 0 19001193.588 -16474235.212 4308039.831 10 0 59461 1800.00000 0 19185621.750 -16783068.970 1127997.011 10 0 59461 2700.00000 0 19055560.590 -16841482.261 -2073943.994 10 0 59461 3600.00000 0 18648524.685 -16609733.758 -5235631.995 10 0 59461 4500.00000 0 18010791.978 -16057979.271 -8295702.575 10 0 59461 5400.00000 0 17195305.155 -15167736.143 -11194768.230 10 0 59461 6300.00000 0 16259310.348 -13932882.485 -13876569.514 10 0 59461 7200.00000 0 15261833.028 -12360148.529 -16289064.757 10 0 59461 8100.00000 0 14261097.540 -10469078.547 -18385437.377 10 0 59461 9000.00000 0 13311998.902 -8291463.910 -20125001.559 10 0 59461 9900.00000 0 12463733.084 -5870269.965 -21473989.016 10 0 59461 10800.00000 0 11757685.165 -3258100.329 -22406202.104 10 0 59461 11700.00000 0 11225663.779 -515261.367 -22903521.052 10 0 59461 12600.00000 0 10888555.770 2292493.768 -22956255.813 10 0 59461 13500.00000 0 10755457.305 5096449.032 -22563335.940 10 0 59461 14400.00000 0 10823317.852 7827535.337 -21732334.785 10 0 59461 15300.00000 0 11077112.015 10418958.996 -20479327.334 10 0 59461 16200.00000 0 11490532.206 12808740.546 -18828583.964 10 0 59461 17100.00000 0 12027173.294 14942059.327 -16812105.438 10 0 59461 18000.00000 0 12642159.739 16773306.775 -14469007.438 10 0 59461 18900.00000 0 13284146.951 18267763.481 -11844765.896 10 0 59461 19800.00000 0 13897612.689 19402830.432 -8990337.061 10 0 59461 20700.00000 0 14425341.808 20168763.253 -5961169.085 10 0 59461 21600.00000 0 14810999.164 20568879.107 -2816124.060 10 0 59461 22500.00000 0 15001681.470 20619227.967 383668.448 10 0 59461 23400.00000 0 14950339.488 20347742.573 3576003.650 10 0 59461 24300.00000 0 14617967.236 19792903.465 6698815.876 10 0 59461 25200.00000 0 13975464.591 19001976.059 9691390.688 10 0 59461 26100.00000 0 13005093.499 18028894.865 12495550.383 10 0 59461 27000.00000 0 11701465.212 16931884.875 15056789.194 10 0 59461 27900.00000 0 10072015.820 15770921.156 17325335.625 10 0 59461 28800.00000 0 8136949.119 14605134.374 19257120.891 10 0 59461 29700.00000 0 5928648.288 13490271.987 20814634.625 10 0 59461 30600.00000 0 3490580.164 12476322.159 21967651.468 10 0 59461 31500.00000 0 875737.305 11605400.352 22693814.726 10 0 59461 32400.00000 0 -1855317.917 10909987.105 22979066.369 10 0 59461 33300.00000 0 -4636726.326 10411590.535 22817915.551 10 0 59461 34200.00000 0 -7399828.125 10119889.112 22213540.961 10 0 59461 35100.00000 0 -10075779.186 10032389.956 21177725.463 10 0 59461 36000.00000 0 -12598179.531 10134616.264 19730624.503 10 0 59461 36900.00000 0 -14905605.471 10400815.331 17900372.908 10 0 59461 37800.00000 0 -16943941.035 10795156.781 15722537.619 10 0 59461 38700.00000 0 -18668412.565 11273370.117 13239426.762 10 0 59461 39600.00000 0 -20045242.559 11784752.244 10499268.285 10 0 59461 40500.00000 0 -21052854.723 12274460.070 7555273.850 10 0 59461 41400.00000 0 -21682580.833 12685991.192 4464605.943 10 0 59461 42300.00000 0 -21938840.696 12963747.741 1287268.276 10 0 59461 43200.00000 0 -21838788.594 13055574.818 -1915059.000 10 0 59461 44100.00000 0 -21411441.920 12915165.969 -5080216.518 10 0 59461 45000.00000 0 -20696329.335 12504233.706 -8146771.861 10 0 59461 45900.00000 0 -19741716.005 11794352.915 -11055211.107 10 0 59461 46800.00000 0 -18602481.067 10768398.778 -13749092.480 10 0 59461 47700.00000 0 -17337736.958 9421517.874 -16176139.675 10 0 59461 48600.00000 0 -16008290.933 7761590.753 -18289253.754 10 0 59461 49500.00000 0 -14674055.406 5809165.455 -20047424.298 10 0 59461 50400.00000 0 -13391515.759 3596863.705 -21416522.454 10 0 59461 51300.00000 0 -12211361.541 1168283.291 -22369960.988 10 0 59461 52200.00000 0 -11176379.986 -1423558.907 -22889208.998 10 0 59461 53100.00000 0 -10319699.707 -4118179.665 -22964151.646 10 0 59461 54000.00000 0 -9663457.699 -6849898.073 -22593288.169 10 0 59461 54900.00000 0 -9217945.070 -9550327.109 -21783764.329 10 0 59461 55800.00000 0 -8981267.044 -12150985.690 -20551238.458 10 0 59461 56700.00000 0 -8939531.242 -14585923.708 -18919583.250 10 0 59461 57600.00000 0 -9067556.248 -16794251.795 -16920428.460 10 0 59461 58500.00000 0 -9330070.634 -18722471.084 -14592552.690 10 0 59461 59400.00000 0 -9683351.987 -20326506.390 -11981135.324 10 0 59461 60300.00000 0 -10077236.787 -21573358.288 -9136882.495 10 0 59461 61200.00000 0 -10457416.220 -22442305.123 -6115043.634 10 0 59461 62100.00000 0 -10767920.602 -22925604.830 -2974337.519 10 0 59461 63000.00000 0 -10953686.892 -23028667.270 224191.307 10 0 59461 63900.00000 0 -10963099.960 -22769690.040 3418363.057 10 0 59461 64800.00000 0 -10750399.193 -22178773.484 6546076.503 10 0 59461 65700.00000 0 -10277847.552 -21296552.583 9546521.797 10 0 59461 66600.00000 0 -9517570.267 -20172403.953 12361367.847 10 0 59461 67500.00000 0 -8452984.291 -18862304.153 14935900.578 10 0 59461 68400.00000 0 -7079757.047 -17426430.114 17220089.383 10 0 59461 69300.00000 0 -5406253.030 -15926603.331 19169560.687 10 0 59461 70200.00000 0 -3453448.417 -14423685.747 20746459.679 10 0 59461 71100.00000 0 -1254316.342 -12975036.975 21920183.652 10 0 59461 72000.00000 0 1147292.262 -11632139.662 22667973.073 10 0 59461 72900.00000 0 3698226.288 -10438492.283 22975349.434 10 0 59461 73800.00000 0 6338005.533 -9427857.181 22836391.961 10 0 59461 74700.00000 0 9001103.760 -8622936.537 22253848.310 10 0 59461 75600.00000 0 11619449.509 -8034530.820 21239077.551 10 0 59461 76500.00000 0 14125041.375 -7661213.977 19811826.775 10 0 59461 77400.00000 0 16452569.648 -7489538.008 17999845.777 10 0 59461 78300.00000 0 18541936.015 -7494757.311 15838347.220 10 0 59461 79200.00000 0 20340567.182 -7642041.524 13369322.551 10 0 59461 80100.00000 0 21805426.628 -7888125.052 10640726.747 10 0 59461 81000.00000 0 22904641.331 -8183323.161 7705547.487 10 0 59461 81900.00000 0 23618676.198 -8473829.093 4620776.598 10 0 59461 82800.00000 0 23941007.699 -8704194.760 1446303.757 10 0 59461 83700.00000 0 23878269.210 -8819889.845 -1756246.080 10 0 59461 84600.00000 0 23449862.628 -8769830.715 -4924708.841 10 0 59461 85500.00000 0 22687053.116 -8508771.859 -7997587.598 10 0 59462 0.00000 0 21631585.617 -7999458.377 -10915245.327 10 0 59462 900.00000 0 20333881.545 -7214447.589 -13621061.228 10 0 59462 1800.00000 0 18850891.946 -6137523.575 -16062527.222 10 0 59462 2700.00000 0 17243697.227 -4764642.054 -18192264.598 10 0 59462 3600.00000 0 15574954.164 -3104367.120 -19968940.589 10 0 59462 4500.00000 0 13906297.175 -1177778.952 -21358067.666 10 0 59462 5400.00000 0 12295802.267 982144.289 -22332670.515 10 0 59462 6300.00000 0 10795619.375 3331646.090 -22873808.230 10 0 59462 7200.00000 0 9449871.568 5817767.339 -22970941.896 10 0 59462 8100.00000 0 8292908.377 8380314.020 -22622140.734 10 0 59462 9000.00000 0 7347985.592 10954136.329 -21834122.792 10 0 59462 9900.00000 0 6626426.253 13471625.598 -20622129.200 10 0 59462 10800.00000 0 6127297.373 15865326.303 -19009634.000 10 0 59462 11700.00000 0 5837615.518 18070555.390 -17027894.563 10 0 59462 12600.00000 0 5733072.257 20027920.413 -14715350.614 10 0 59462 13500.00000 0 5779248.676 21685631.993 -12116882.807 10 0 59462 14400.00000 0 5933267.512 23001514.254 -9282944.578 10 0 59462 15300.00000 0 6145812.907 23944629.177 -6268583.723 10 0 59462 16200.00000 0 6363432.083 24496446.846 -3132372.485 10 0 59462 17100.00000 0 6531021.027 24651512.383 64733.049 10 0 59462 18000.00000 0 6594388.347 24417581.528 3260581.639 10 0 59462 18900.00000 0 6502787.863 23815219.223 6393040.069 10 0 59462 19800.00000 0 6211311.719 22876878.262 9401206.541 10 0 59462 20700.00000 0 5683041.657 21645497.121 12226599.856 10 0 59462 21600.00000 0 4890866.328 20172676.396 14814300.631 10 0 59462 22500.00000 0 3818886.726 18516511.070 17114021.842 10 0 59462 23400.00000 0 2463349.381 16739170.226 19081087.467 10 0 59462 24300.00000 0 833066.955 14904326.287 20677300.209 10 0 59462 25200.00000 0 -1050692.426 13074541.859 21871681.585 10 0 59462 26100.00000 0 -3154843.328 11308723.762 22641070.361 10 0 59462 27000.00000 0 -5435622.819 9659750.613 22970568.241 10 0 59462 27900.00000 0 -7840185.120 8172372.690 22853824.734 10 0 59462 28800.00000 0 -10308585.264 6881471.164 22293156.159 10 0 59462 29700.00000 0 -12776069.838 5810748.504 21299496.954 10 0 59462 30600.00000 0 -15175580.164 4971903.634 19892184.476 10 0 59462 31500.00000 0 -17440364.232 4364325.195 18098581.580 10 0 59462 32400.00000 0 -19506589.371 3975314.475 15953544.264 10 0 59462 33300.00000 0 -21315847.349 3780827.438 13498744.493 10 0 59462 34200.00000 0 -22817447.972 3746703.624 10781861.161 10 0 59462 35100.00000 0 -23970405.990 3830329.217 7855654.638 10 0 59462 36000.00000 0 -24745038.735 3982663.372 4776942.667 10 0 59462 36900.00000 0 -25124108.078 4150541.629 1605497.460 10 0 59462 37800.00000 0 -25103459.305 4279158.538 -1597114.574 10 0 59462 38700.00000 0 -24692130.540 4314624.040 -4768727.877 10 0 59462 39600.00000 0 -23911928.471 4206485.038 -7847784.070 10 0 59462 40500.00000 0 -22796488.560 3910105.096 -10774526.010 10 0 59462 41400.00000 0 -21389859.434 3388801.153 -13492156.270 10 0 59462 42300.00000 0 -19744671.060 2615646.476 -15947937.436 10 0 59462 43200.00000 0 -17919963.616 1574863.117 -18094213.041 10 0 59462 44100.00000 0 -15978767.920 262744.391 -19889329.559 10 0 59462 45000.00000 0 -13985538.555 -1311932.355 -21298441.916 10 0 59462 45900.00000 0 -12003546.631 -3128021.130 -22294187.371 10 0 59462 46800.00000 0 -10092340.584 -5152647.342 -22857215.157 10 0 59462 47700.00000 0 -8305380.455 -7342347.049 -22976561.960 10 0 59462 48600.00000 0 -6687943.619 -9644659.308 -22649866.221 10 0 59462 49500.00000 0 -5275388.613 -12000106.688 -21883417.126 10 0 59462 50400.00000 0 -4091848.789 -14344482.671 -20692037.119 10 0 59462 51300.00000 0 -3149409.641 -16611351.858 -19098799.838 10 0 59462 52200.00000 0 -2447803.494 -18734659.824 -17134588.296 10 0 59462 53100.00000 0 -1974633.794 -20651344.414 -14837501.210 10 0 59462 54000.00000 0 -1706118.973 -22303840.028 -12252118.267 10 0 59462 54900.00000 0 -1608324.100 -23642370.430 -9428637.916 10 0 59462 55800.00000 0 -1638827.931 -24626934.055 -6421904.010 10 0 59462 56700.00000 0 -1748754.445 -25228898.469 -3290339.963 10 0 59462 57600.00000 0 -1885082.368 -25432136.762 -94811.141 10 0 59462 58500.00000 0 -1993134.274 -25233657.832 3102562.011 10 0 59462 59400.00000 0 -2019139.007 -24643703.806 6239616.511 10 0 59462 60300.00000 0 -1912757.932 -23685310.381 9255360.814 10 0 59462 61200.00000 0 -1629467.052 -22393348.577 12091165.797 10 0 59462 62100.00000 0 -1132693.065 -20813088.392 14691908.903 10 0 59462 63000.00000 0 -395611.973 -18998344.961 17007048.731 10 0 59462 63900.00000 0 597466.729 -17009285.467 18991608.708 10 0 59462 64800.00000 0 1850189.643 -14909989.070 20607050.748 10 0 59462 65700.00000 0 3353762.109 -12765862.310 21822022.044 10 0 59462 66600.00000 0 5087081.388 -10641018.218 22612960.838 10 0 59462 67500.00000 0 7017395.674 -8595728.481 22964549.934 10 0 59462 68400.00000 0 9101462.092 -6684054.605 22870009.702 10 0 59462 69300.00000 0 11287155.991 -4951756.271 22331225.419 10 0 59462 70200.00000 0 13515465.037 -3434563.184 21358706.905 10 0 59462 71100.00000 0 15722785.630 -2156881.344 19971381.525 10 0 59462 72000.00000 0 17843426.404 -1130986.504 18196224.664 10 0 59462 72900.00000 0 19812215.015 -356737.106 16067734.843 10 0 59462 73800.00000 0 21567099.997 178182.707 13627263.425 10 0 59462 74700.00000 0 23051639.395 497501.509 10922211.762 10 0 59462 75600.00000 0 24217272.649 635113.696 8005111.103 10 0 59462 76500.00000 0 25025280.946 633400.857 4932602.918 10 0 59462 77400.00000 0 25448354.217 541193.098 1764339.418 10 0 59462 78300.00000 0 25471699.313 411457.152 -1438174.388 10 0 59462 79200.00000 0 25093643.057 298809.629 -4612774.537 10 0 59462 80100.00000 0 24325704.998 256961.082 -7697844.404 10 0 59462 81000.00000 0 23192136.943 336199.442 -10633509.885 10 0 59462 81900.00000 0 21728948.615 581019.719 -13362800.167 10 0 59462 82800.00000 0 19982460.333 1028000.542 -15832751.419 10 0 59462 83700.00000 0 18007443.271 1704017.742 -17995432.141 10 0 59462 84600.00000 0 15864924.920 2624870.916 -19808870.540 10 0 59462 85500.00000 0 13619751.282 3794381.547 -21237866.223 10 0 59463 0.00000 0 11338007.116 5204001.437 -22254670.946 10 0 59463 900.00000 0 9084401.326 6832949.401 -22839525.753 10 0 59463 1800.00000 0 6919725.631 8648870.541 -22981044.241 10 0 59463 2700.00000 0 4898492.255 10608993.614 -22676435.002 10 0 59463 3600.00000 0 3066847.161 12661737.862 -21931558.885 10 0 59463 4500.00000 0 1460845.893 14748704.479 -20760819.730 10 0 59463 5400.00000 0 105162.544 16806970.465 -19186890.372 10 0 59463 6300.00000 0 -987714.940 18771590.263 -17240278.580 10 0 59463 7200.00000 0 -1817770.247 20578201.425 -14958740.692 10 0 59463 8100.00000 0 -2397213.748 22165625.943 -12386553.581 10 0 59463 9000.00000 0 -2749718.125 23478358.633 -9573658.414 10 0 59463 9900.00000 0 -2909167.333 24468838.223 -6574692.404 10 0 59463 10800.00000 0 -2917972.344 25099405.635 -3447927.099 10 0 59463 11700.00000 0 -2825025.488 25343866.797 -254133.827 10 0 59463 12600.00000 0 -2683380.644 25188593.727 2944601.252 10 0 59463 13500.00000 0 -2547758.327 24633117.115 6086088.967 10 0 59463 14400.00000 0 -2471982.243 23690184.986 9109251.599 10 0 59463 15300.00000 0 -2506456.850 22385284.688 11955315.555 10 0 59463 16200.00000 0 -2695793.721 20755648.152 14568958.384 10 0 59463 17100.00000 0 -3076688.137 18848782.174 16899387.337 10 0 59463 18000.00000 0 -3676136.562 16720585.524 18901328.040 10 0 59463 18900.00000 0 -4510071.125 14433131.958 20535904.034 10 0 59463 19800.00000 0 -5582469.482 12052211.976 21771390.251 10 0 59463 20700.00000 0 -6884978.181 9644736.183 22583826.077 10 0 59463 21600.00000 0 -8397066.080 7276108.416 22957476.647 10 0 59463 22500.00000 0 -10086702.019 5007677.799 22885133.960 10 0 59463 23400.00000 0 -11911528.927 2894375.315 22368252.506 10 0 59463 24300.00000 0 -13820485.897 982632.435 21416917.201 10 0 59463 25200.00000 0 -15755810.963 -691332.632 20049644.560 10 0 59463 26100.00000 0 -17655341.434 -2102790.851 18293021.086 10 0 59463 27000.00000 0 -19455016.155 -3239288.671 16181185.864 10 0 59463 27900.00000 0 -21091475.605 -4100913.384 13755167.216 10 0 59463 28800.00000 0 -22504651.383 -4700027.844 11062086.087 10 0 59463 29700.00000 0 -23640237.026 -5060487.143 8154241.422 10 0 59463 30600.00000 0 -24451936.887 -5216371.466 5088095.003 10 0 59463 31500.00000 0 -24903398.839 -5210289.546 1923175.497 10 0 59463 32400.00000 0 -24969749.800 -5091325.299 -1279077.078 10 0 59463 33300.00000 0 -24638669.593 -4912715.113 -4456503.918 10 0 59463 34200.00000 0 -23910957.948 -4729354.582 -7547433.632 10 0 59463 35100.00000 0 -22800570.755 -4595240.629 -10491878.515 10 0 59463 36000.00000 0 -21334123.825 -4560957.619 -13232697.534 10 0 59463 36900.00000 0 -19549884.806 -4671314.059 -15716703.348 10 0 59463 37800.00000 0 -17496295.174 -4963230.107 -17895692.007 10 0 59463 38700.00000 0 -15230083.772 -5463965.419 -19727375.594 10 0 59463 39600.00000 0 -12814050.318 -6189762.516 -21176200.035 10 0 59463 40500.00000 0 -10314610.801 -7144963.396 -22214032.678 10 0 59463 41400.00000 0 -7799206.379 -8321637.307 -22820706.792 10 0 59463 42300.00000 0 -5333682.970 -9699736.219 -22984412.751 10 0 59463 43200.00000 0 -2979749.702 -11247772.589 -22701928.628 10 0 59463 44100.00000 0 -792621.003 -12923992.238 -21978685.742 10 0 59463 45000.00000 0 1181060.389 -14677994.456 -20828667.726 10 0 59463 45900.00000 0 2904934.019 -16452732.763 -19274144.673 10 0 59463 46800.00000 0 4354195.486 -18186813.705 -17345246.904 10 0 59463 47700.00000 0 5516381.047 -19816998.285 -15079385.969 10 0 59463 48600.00000 0 6391631.056 -21280801.916 -12520533.383 10 0 59463 49500.00000 0 6992422.006 -22519084.194 -9718370.395 10 0 59463 50400.00000 0 7342779.096 -23478519.792 -6727324.887 10 0 59463 51300.00000 0 7477003.270 -24113846.432 -3605513.843 10 0 59463 52200.00000 0 7437967.141 -24389794.914 -413611.880 10 0 59463 53100.00000 0 7275052.583 -24282619.300 2786331.734 10 0 59463 54000.00000 0 7041818.068 -23781162.168 5932104.149 10 0 59463 54900.00000 0 6793495.394 -22887409.351 8962543.863 10 0 59463 55800.00000 0 6584422.704 -21616510.194 11818735.045 10 0 59463 56700.00000 0 6465523.424 -19996262.028 14445157.409 10 0 59463 57600.00000 0 6481938.709 -18066080.155 16790768.693 10 0 59463 58500.00000 0 6670914.309 -15875496.394 18809998.304 10 0 59463 59400.00000 0 7060031.861 -13482249.027 20463632.730 10 0 59463 60300.00000 0 7665859.840 -10950043.930 21719575.659 10 0 59463 61200.00000 0 8493081.540 -8346080.385 22553468.349 10 0 59463 62100.00000 0 9534137.223 -5738444.543 22949158.704 10 0 59463 63000.00000 0 10769395.916 -3193478.706 22899010.530 10 0 59463 63900.00000 0 12167850.024 -773235.461 22404047.461 10 0 59463 64800.00000 0 13688304.040 1466878.266 21473929.235 10 0 59463 65700.00000 0 15281008.008 3480170.262 20126761.064 10 0 59463 66600.00000 0 16889667.676 5230360.174 18388739.934 10 0 59463 67500.00000 0 18453747.608 6692835.470 16293644.689 10 0 59463 68400.00000 0 19910971.148 7855415.271 13882179.597 10 0 59463 69300.00000 0 21199912.745 8718591.594 11201183.975 10 0 59463 70200.00000 0 22262574.198 9295239.398 8302722.968 10 0 59463 71100.00000 0 23046836.833 9609809.044 5243076.908 10 0 59463 72000.00000 0 23508686.676 9697036.308 2081648.854 10 0 59463 72900.00000 0 23614119.072 9600225.470 -1120188.493 10 0 59463 73800.00000 0 23340642.545 9369178.783 -4300284.045 10 0 59463 74700.00000 0 22678318.465 9057860.516 -7396914.361 10 0 59463 75600.00000 0 21630292.495 8721894.862 -10349980.909 10 0 59463 76500.00000 0 20212795.159 8416003.908 -13102175.215 10 0 59463 77400.00000 0 18454611.052 8191494.236 -15600089.128 10 0 59463 78300.00000 0 16396038.439 8093898.586 -17795248.827 10 0 59463 79200.00000 0 14087382.201 8160872.323 -19645052.709 10 0 59463 80100.00000 0 11587042.462 8420433.651 -21113595.295 10 0 59463 81000.00000 0 8959277.952 8889621.991 -22172361.621 10 0 59463 81900.00000 0 6271736.386 9573631.416 -22800779.107 10 0 59463 82800.00000 0 3592853.893 10465456.128 -22986616.571 10 0 59463 83700.00000 0 989230.608 11546063.586 -22726222.908 10 0 59463 84600.00000 0 -1476909.462 12785088.950 -22024600.895 10 0 59463 85500.00000 0 -3750069.620 14142022.665 -20895314.490 10 0 59464 0.00000 0 -5783545.965 15567842.432 -19360231.125 10 0 59464 900.00000 0 -7541121.991 17007022.251 -17449103.113 10 0 59464 1800.00000 0 -8998322.977 18399834.873 -15198996.276 10 0 59464 2700.00000 0 -10143177.523 19684851.903 -12653575.275 10 0 59464 3600.00000 0 -10976456.587 20801536.927 -9862259.512 10 0 59464 4500.00000 0 -11511379.535 21692822.573 -6879265.218 10 0 59464 5400.00000 0 -11772800.859 22307562.987 -3762552.153 10 0 59464 6300.00000 0 -11795912.453 22602757.892 -572695.312 10 0 59464 7200.00000 0 -11624516.927 22545453.842 2628296.064 10 0 59464 8100.00000 0 -11308945.791 22114241.682 5778188.719 10 0 59464 9000.00000 0 -10903711.399 21300286.216 8815740.708 10 0 59464 9900.00000 0 -10464992.903 20107843.859 11681897.323 10 0 59464 10800.00000 0 -10048063.491 18554245.705 14320943.734 10 0 59464 11700.00000 0 -9704768.587 16669346.071 16681591.351 10 0 59464 12600.00000 0 -9481162.357 14494459.217 18717976.368 10 0 59464 13500.00000 0 -9415402.985 12080828.400 20390550.987 10 0 59464 14400.00000 0 -9535996.004 9487691.004 21666850.142 10 0 59464 15300.00000 0 -9860460.056 6780020.352 22522119.107 10 0 59464 16200.00000 0 -10394471.472 4026038.022 22939790.321 10 0 59464 17100.00000 0 -11131523.820 1294599.833 22911800.723 10 0 59464 18000.00000 0 -12053116.809 -1347436.240 22438743.940 10 0 59464 18900.00000 0 -13129466.738 -3837751.526 21529854.864 10 0 59464 19800.00000 0 -14320708.838 -6120912.816 20202827.188 10 0 59464 20700.00000 0 -15578541.194 -8150426.625 18483467.620 10 0 59464 21600.00000 0 -16848241.526 -9890417.381 16405193.451 10 0 59464 22500.00000 0 -18070972.372 -11316860.947 14008383.077 10 0 59464 23400.00000 0 -19186278.101 -12418323.382 11339591.902 10 0 59464 24300.00000 0 -20134668.987 -13196175.499 8450648.592 10 0 59464 25200.00000 0 -20860183.823 -13664275.650 5397649.016 10 0 59464 26100.00000 0 -21312823.227 -13848135.323 2239867.370 10 0 59464 27000.00000 0 -21450751.169 -13783603.841 -961394.407 10 0 59464 27900.00000 0 -21242171.789 -13515128.621 -4143996.503 10 0 59464 28800.00000 0 -20666802.195 -13093665.146 -7246167.056 10 0 59464 29700.00000 0 -19716878.859 -12574325.596 -10207700.354 10 0 59464 30600.00000 0 -18397654.742 -12013865.874 -12971124.062 10 0 59464 31500.00000 0 -16727365.703 -11468117.476 -15482812.659 10 0 59464 32400.00000 0 -14736666.913 -10989472.818 -17694025.643 10 0 59464 33300.00000 0 -12467562.056 -10624530.178 -19561850.559 10 0 59464 34200.00000 0 -9971869.334 -10411997.589 -21050032.890 10 0 59464 35100.00000 0 -7309287.320 -10380943.974 -22129677.155 10 0 59464 36000.00000 0 -4545140.278 -10549471.235 -22779806.107 10 0 59464 36900.00000 0 -1747895.781 -10923863.299 -22987767.530 10 0 59464 37800.00000 0 1013443.231 -11498248.199 -22749481.051 10 0 59464 38700.00000 0 3671964.739 -12254787.902 -22069520.230 10 0 59464 39600.00000 0 6165384.109 -13164388.508 -20961028.186 10 0 59464 40500.00000 0 8438386.372 -14187901.756 -19445468.002 10 0 59464 41400.00000 0 10444677.833 -15277768.170 -17552212.182 10 0 59464 42300.00000 0 12148662.322 -16380033.510 -15317978.436 10 0 59464 43200.00000 0 13526672.980 -17436654.377 -12786122.016 10 0 59464 44100.00000 0 14567708.805 -18387996.369 -10005797.655 10 0 59464 45000.00000 0 15273645.684 -19175419.699 -7031006.914 10 0 59464 45900.00000 0 15658913.777 -19743843.168 -3919549.159 10 0 59464 46800.00000 0 15749655.454 -20044177.925 -731896.504 10 0 59464 47700.00000 0 15582399.971 -20035527.614 2469985.079 10 0 59464 48600.00000 0 15202311.565 -19687061.199 5623845.081 10 0 59464 49500.00000 0 14661085.810 -18979478.427 8668364.086 10 0 59464 50400.00000 0 14014583.963 -17906005.117 11544351.225 10 0 59464 51300.00000 0 13320306.174 -16472875.355 14195899.515 10 0 59464 52200.00000 0 12634811.167 -14699279.372 16571476.075 10 0 59464 53100.00000 0 12011192.072 -12616778.558 18624925.532 10 0 59464 54000.00000 0 11496715.554 -10268211.496 20316367.057 10 0 59464 54900.00000 0 11130724.159 -7706136.227 21612967.701 10 0 59464 55800.00000 0 10942890.467 -4990873.404 22489577.265 10 0 59464 56700.00000 0 10951896.574 -2188231.516 22929212.900 10 0 59464 57600.00000 0 11164594.311 632991.652 22923384.552 10 0 59464 58500.00000 0 11575681.338 3403627.835 22472255.463 10 0 59464 59400.00000 0 12167906.461 6056769.268 21584635.085 10 0 59464 60300.00000 0 12912795.365 8530303.329 20277804.823 10 0 59464 61200.00000 0 13771866.111 10769246.373 18577180.174 10 0 59464 62100.00000 0 14698283.245 12727780.824 16515815.814 10 0 59464 63000.00000 0 15638880.971 14370911.903 14133763.053 10 0 59464 63900.00000 0 16536470.300 15675676.114 11477292.008 10 0 59464 64800.00000 0 17332333.121 16631852.347 8597993.316 10 0 59464 65700.00000 0 17968798.152 17242147.163 5551776.634 10 0 59464 66600.00000 0 18391790.177 17521847.665 2397785.335 10 0 59464 67500.00000 0 18553244.981 17497957.762 -802751.551 10 0 59464 68400.00000 0 18413287.907 17207855.180 -3987707.804 10 0 59464 69300.00000 0 17942083.860 16697526.667 -7095265.558 10 0 59464 70200.00000 0 17121280.333 16019456.486 -10065114.382 10 0 59464 71100.00000 0 15944982.097 15230257.839 -12839620.531 10 0 59464 72000.00000 0 14420215.892 14388147.387 -15364943.514 10 0 59464 72900.00000 0 12566864.769 13550369.617 -17592078.460 10 0 59464 73800.00000 0 10417073.916 12770679.596 -19477804.283 10 0 59464 74700.00000 0 8014151.860 12096990.044 -20985519.530 10 0 59464 75600.00000 0 5411011.830 11569281.607 -22085950.198 10 0 59464 76500.00000 0 2668217.111 11217864.016 -22757716.216 10 0 59464 77400.00000 0 -148289.372 11062061.066 -22987745.983 10 0 59464 78300.00000 0 -2969678.033 11109374.576 -22771531.235 10 0 59464 79200.00000 0 -5726845.800 11355162.543 -22113217.349 10 0 59464 80100.00000 0 -8353041.958 11782845.159 -21025527.196 10 0 59464 81000.00000 0 -10786398.664 12364630.427 -19529519.677 10 0 59464 81900.00000 0 -12972261.851 13062729.300 -17654187.014 10 0 59464 82800.00000 0 -14865226.276 13831009.719 -15435897.967 10 0 59464 83700.00000 0 -16430790.565 14617020.402 -12917697.049 10 0 59464 84600.00000 0 -17646563.805 15364299.423 -10148472.603 10 0 59464 85500.00000 0 -18502973.601 16014870.382 -7182009.474 99